マクノート彗星

C/2011 L1 ( McNaught )

English version
Home page
Updated on April 13, 2013

---------------------------------------------------------------------

・ プロフィール

発見日 2011年6月2日
発見光度 16.9等
発見者 Robert H. McNaught (Siding Spring)

・ 写真集

・ 軌道要素

Epoch 2010 Dec. 30.0 TT = JDT 2455560.5
T 2010 Dec. 18.31374 TT                                 MPC
q   2.2425173            (2000.0)            P               Q
n   0.02687943     Peri.  294.47678     -0.48506166     -0.11204114
a  11.0371265      Node   252.36544     +0.07204914     -0.99350678
e   0.7968206      Incl.   65.51048     -0.87150680     -0.01977546
P  36.7
From 119 observations 2011 June 2-Sept. 13, mean residual 0".6.

・ 星図

・ 光度変化

        m1 = 11.0 + 5 logΔ + 10.0 log r

---------------------------------------------------------------------

軌道要素はM.P.E.C. 2013-G31に掲載されたものです。
星図はステラナビゲータ Ver.8 (アストロアーツ) で作成したものです。
光度グラフはComet for Windowsで作成したものです。

---------------------------------------------------------------------

Copyright(C) Seiichi Yoshida (comet@aerith.net). All rights reserved.